ARIANE 2 DEB, 33578

Orbit data source: Space-Track

ARIANE 2 DEB, 33578 is space debris in HEO originally from a launch on Fri, 27 Jan 1989 UTC launched from the French Guiana (FRGUI). Debris objects in space refer to the collection of defunct objects orbiting the Earth. Examples of debris include non-operational satellites, rocket bodies, and fragments generated from explosions, collisions, or faulty payload assembly.

Loading next visibility...
Identifier
33578, 1989-006BW
Orbit
HEO
Country
Flag of FRFR
Related business
Manufacturer
EADS/LV
Mission
Spacecraft
Bus & Motor
Unknown
Mass
Unknown
Launch date (UTC)
1989-01-27 (37 years ago)
Launch vehicle
Unknown
Launch site
French Guiana (FRGUI)
Object type
Payload
Rocket body
Debris
Shape & HBR
Unknown shape, 0.2 m
Radar Cross Section
Medium (>0.1 m² and <1 m²)

Expand to show TLE details & history
Last TLE update: 3 days ago

TLE from 3 days ago
0 ARIANE 2 DEB
1 33578U 89006BW  25288.46782125  .00000131  00000-0  54905-3 0  9990
2 33578   7.9443 116.9188 7152302 355.9539   0.5240  2.31077782159494
Epoch: 2025-10-15T11:13Z
TLE epoch observation values (Epoch: 2025-10-15T11:13:39.756Z)
Latitude
0.00062°
Longitude
-75.6809°
Altitude
531.858 km
Speed
9.943 km/s
True Right ascension
07h 47m 54s
True Declination
0° 00' 02"
Sunlit
Object was in daylight at epoch
Visualization orbit readout
Latitude
Unknown
Longitude
Unknown
Altitude
Unknown
Speed
Unknown
Apparent Right ascension
Unknown
Apparent Declination
Unknown
Sunlit
N/A
Visualization observer readout
Local Sidereal Time
10:57:14
Azimuth
Unknown
Elevation
Unknown
Doppler factor
Unknown
Orbital elements
Apogee altitude
35,083.418 km
Perigee altitude
505.486 km
Semi-major axis
24,172.589 km
Eccentricity
0.71523
Inclination
7.9443°
RAAN
116.9188°
Arg. of periapsis
355.9539°
True anomaly
4.51208°
Mean anomaly
0.524°
Eccentric anomaly
1.83929°
Mean motion
0.57751 °/min
Orbital period
623.37 mins
BSTAR
0.00054905
Loading maneuver chart data...
Computing Atmospheric mass density...
Loading historical data...
Loading historical data...
Loading historical data...
Loading historical data...
Loading historical data...
Loading historical data...
Loading historical data...

Documentation

Showing up to 5 results
|